Location: B�hmischdorf
(50.7601°N, 14.7614°E)
Time: 13:42:45
(UTC+00:00)

Daily predictions for brighter satellites

Satellite Brightness Start Highest point End
(mag) Time Altitude Azimuth Time Altitude Azimuth Time Altitude Azimuth
Cosmos 405 Rocket 2.9 18:36:40 10° N 18:40:38 60° ENE 18:44:31 10° SSE
Cosmos 909 Rocket 4.2 18:35:44 10° SSW 18:41:51 55° ESE 18:48:11 10° NE
Cosmos 2237 Rocket 2.3 18:36:42 10° NNW 18:42:21 67° ENE 18:47:56 10° SE
Cosmos 1812 Rocket 4.4 18:41:35 10° SSE 18:45:31 31° E 18:49:28 10° NNE
Helios 1A Rocket 4.2 18:42:42 10° S 18:46:36 43° W 18:50:34 10° NNW
DMSP B5D2-2 4.2 18:41:47 10° NNE 18:47:04 86° WNW 18:52:20 10° SSW
Cosmos 1818 3.6 18:42:57 10° SSW 18:48:22 73° SE 18:53:51 10° NE
NOSS 3-4 (A) 4.4 18:42:54 10° WSW 18:48:44 54° NW 18:55:08 10° NE
NOSS 3-4 (C) 4.3 18:43:01 10° WSW 18:48:50 54° NW 18:55:14 10° NE
Cosmos 482 Debris 3.2 18:46:45 10° W 18:49:24 64° N 18:51:22 10° ENE
Cosmos 192 4.4 18:44:52 10° NNW 18:49:52 81° ENE 18:54:49 10° SSE
Cosmos 1825 2.7 18:49:40 10° NNW 18:53:25 61° W 18:57:09 10° S
Exosat Rocket 4.3 18:50:49 10° NNW 18:57:13 61° WSW 19:02:16 10° S
Cosmos 1655 Rocket 4.3 18:53:09 10° N 18:59:15 49° ENE 19:05:16 10° SSE
Cosmos 2227 Rocket 3.0 18:55:00 10° SSE 18:59:51 30° ESE 19:04:43 10° NE
CZ-4C R/B 3.9 18:55:02 10° W 19:00:04 36° NNW 19:06:07 10° NE
Abrixas rocket 1.6 18:58:42 10° SW 19:00:05 24° S 19:00:44 18° SE
BREEZE-M DEB (TANK) 4.0 18:58:27 10° WSW 19:01:41 68° SSE 19:10:26 10° E
ATLAS 2AS CENTAUR R/B 3.5 18:54:22 10° SW 19:02:16 68° NW 19:09:57 10° NE
Cosmos 2058 3.7 18:58:55 10° NNW 19:03:02 56° W 19:07:05 10° S
Cosmos 1633 2.8 19:02:18 10° N 19:05:50 48° ENE 19:09:14 10° SSE
Cosmos 2297 Rocket 2.6 19:01:06 10° S 19:06:22 42° ESE 19:11:40 10° NE
FALCON 9 DEB 4.2 19:05:12 10° S 19:07:31 20° SE 19:09:23 12° E
IRIDIUM 106 4.5 19:02:51 10° SSE 19:07:56 57° E 19:13:04 10° N
Lacrosse 5 rocket 2.8 19:04:46 10° WNW 19:08:36 35° N 19:12:39 10° ENE
FALCON 9 DEB 3.9 19:09:35 10° SSW 19:12:07 24° SE 19:14:19 12° E
Resurs 01 Rocket 1.7 19:08:53 10° SSE 19:13:16 63° ENE 19:17:42 10° N
Genesis I 3.3 19:10:15 10° NW 19:14:17 88° SW 19:17:40 14° SE
Meteor 2-14 Rocket 4.5 19:08:32 10° N 19:14:36 68° ENE 19:20:38 10° SSE
Resurs 1-3 3.7 19:10:39 10° S 19:15:02 79° WSW 19:19:28 10° NNW
Cosmos 2219 3.5 19:10:13 10° S 19:15:29 44° ESE 19:20:49 10° NE
Cosmos 2333 Rocket 4.4 19:11:12 10° NW 19:15:41 24° WSW 19:20:07 10° SSW
BREEZE-M DEB (TANK) 3.8 19:12:44 10° WSW 19:16:53 79° SSE 19:32:18 10° E
Meteor 1-4 Rocket 4.2 19:16:24 14° ESE 19:17:18 16° E 19:19:28 10° NE
SJ-6B 4.2 19:15:38 10° SSW 19:19:07 37° W 19:22:41 10° NNW
ERS-2 4.2 19:18:28 10° N 19:21:44 31° WNW 19:24:59 10° SW
Cosmos 2084 Rocket 3.8 19:20:03 10° S 19:23:39 34° SE 19:27:21 10° ENE
Cosmos 389 Rocket 2.6 19:20:26 10° SSW 19:23:58 82° WNW 19:27:34 10° N
FALCON 9 DEB 3.6 19:21:24 10° SSW 19:24:08 31° SSE 19:26:05 16° E
Cosmos 1190 Rocket 4.2 19:19:17 10° S 19:24:15 47° ESE 19:29:15 10° NE
Ariane Rocket 3.5 19:20:30 10° S 19:25:29 59° WSW 19:30:30 10° NNW
NOSS 3-1 (C) 4.4 19:18:53 10° NW 19:25:46 53° NE 19:33:00 13° ESE
Cosmos 614 Rocket 4.2 19:22:41 10° SSW 19:27:49 76° WNW 19:32:57 10° NNE
Terra 3.4 19:25:00 13° E 19:27:49 21° ENE 19:31:19 10° NNE
Cosmos 2251 Rocket 4.3 19:24:23 10° SW 19:29:40 58° WNW 19:34:57 10° NNE
ATLAS 3B R/B 4.1 19:24:24 10° NW 19:30:38 35° WSW 19:37:03 10° S
FALCON 9 DEB 3.3 19:27:15 10° W 19:30:41 74° NNW 19:34:08 10° ENE
Cosmos 2279 Rocket 4.1 19:28:05 10° SSW 19:34:16 81° W 19:40:31 10° N
SPOT 5 3.9 19:34:55 18° ESE 19:37:37 31° ENE 19:41:54 10° N
SPOT 1/Viking Rocket 3.7 19:33:40 16° SSE 19:37:46 61° ENE 19:42:55 10° N
Cosmos 1980 4.5 19:33:01 10° NW 19:38:30 50° WSW 19:43:57 10° S
SL-16 R/B 2.3 19:33:41 10° NNW 19:39:23 68° ENE 19:43:26 20° SE
USA 215 3.3 19:34:16 15° ESE 19:39:52 81° NNE 19:46:27 10° WNW
Cosmos 2151 3.1 19:35:53 10° NNW 19:40:12 78° W 19:44:10 12° S
Cosmos-2242 3.0 19:36:01 10° S 19:40:16 60° E 19:44:31 10° NNE
Meteor 2-21 Rocket 4.4 19:34:37 10° N 19:40:43 82° ENE 19:46:19 13° SSE
Cosmos 676 Rocket 4.4 19:37:51 10° S 19:42:41 41° ESE 19:47:33 10° NE
SPOT 3 Rocket 3.7 19:40:39 11° S 19:45:42 74° WSW 19:50:55 10° NNW
FALCON 9 DEB 3.3 19:43:01 10° SW 19:45:54 38° SSE 19:46:41 31° ESE
COSMOS 2455 3.2 19:44:08 10° S 19:49:41 40° ESE 19:55:16 10° NE
Meteor 2-16 Rocket 4.4 19:44:52 10° N 19:51:05 83° E 19:56:11 16° SSE
SL-4 R/B 2.5 19:48:41 10° SW 19:52:55 46° SSE 19:57:24 10° ENE
ATLAS 5 CENTAUR R/B 4.3 19:49:57 10° NW 19:53:20 19° N 19:57:07 10° NE
Cosmos 1408 Rocket 4.3 19:52:03 10° N 19:56:06 37° ENE 19:57:45 27° ESE
ERS-1 Rocket 3.4 19:53:54 24° SE 19:56:38 47° ENE 20:01:27 10° N
Cosmos 2266 Rocket 4.1 19:50:31 10° NNW 19:56:56 82° W 20:02:36 13° S
IGS 5A 4.0 19:54:20 14° S 19:57:47 57° W 20:01:54 10° NNW
Landsat 7 4.1 19:55:13 15° S 19:59:10 67° WSW 20:03:56 10° NNW
OBJECT-B 3.9 19:57:58 10° WSW 19:59:16 12° W 20:00:33 10° WNW
Timation 1 Rocket 4.4 19:58:56 10° S 20:04:41 52° ESE 20:10:28 10° NE
Cosmos 1862 4.1 20:01:09 10° N 20:04:49 34° ENE 20:05:51 29° ESE
Cosmos 1943 4.2 19:59:57 10° NNW 20:05:04 34° NE 20:08:18 19° E
Cosmos 2221 3.5 20:05:05 27° ESE 20:05:42 28° E 20:09:22 10° NNE
ARIANE 5 R/B 2.5 20:04:04 28° SSE 20:06:23 78° ENE 20:10:47 10° NNW
USA 245 2.8 20:05:50 32° S 20:07:19 79° WSW 20:10:16 10° NNW
Cosmos 2344 4.1 20:00:24 10° WSW 20:07:45 64° NW 20:16:06 10° NE
Cosmos 407 Rocket 3.9 20:03:19 10° SW 20:08:25 65° WNW 20:13:37 10° NNE
Meteor 2-3 Rocket 4.3 20:07:18 10° NNW 20:12:57 57° W 20:17:47 14° S
Cosmos 1743 Rocket 4.5 20:10:55 10° N 20:14:50 32° ENE 20:15:53 28° E
Meteor 1-27 4.3 20:14:15 10° SSW 20:20:02 88° WNW 20:25:55 10° NNE
Cosmos 44 Rocket 3.5 20:15:10 10° SSW 20:20:07 55° ESE 20:25:13 10° NE
TSX-5 4.4 20:19:00 34° SSE 20:20:16 42° ESE 20:24:02 10° NE
Cosmos 1140 Rocket 4.1 20:16:41 10° SW 20:21:43 57° WNW 20:26:49 10° NNE
JB-3 4.4 20:18:15 10° NNE 20:22:18 58° E 20:23:23 42° SSE
CZ-2C R/B 3.9 20:19:01 10° N 20:23:26 67° WNW 20:27:42 11° SSW
Cosmos 1954 Rocket 3.9 20:20:33 10° SSW 20:25:43 89° ESE 20:30:57 10° NNE
Cosmos 2237 Rocket 4.0 20:21:29 10° NW 20:25:56 24° WSW 20:30:19 10° SSW
Timation 2 Rocket 4.2 20:22:21 10° SW 20:28:53 74° WNW 20:35:10 10° NNE
Cosmos 1850 Rocket 4.4 20:27:53 36° SE 20:29:03 41° ESE 20:33:57 10° NE
Cosmos 1606 4.3 20:31:58 21° ENE 20:31:58 21° ENE 20:34:13 10° NE
Meteor 2-15 4.3 20:29:12 25° S 20:32:49 72° E 20:38:51 10° NNE
Cosmos 1500 Rocket 4.0 20:28:40 10° N 20:33:01 48° ENE 20:33:58 41° ESE
Cosmos 1766 Rocket 4.1 20:29:59 10° NNW 20:34:13 52° W 20:36:22 26° SSW
Cosmos 2263 Rocket 3.0 20:34:38 30° ESE 20:34:45 30° ESE 20:39:31 10° NE
Spot 2 Rocket 3.9 20:32:07 25° S 20:34:57 60° WSW 20:40:00 10° NNW
CARTOSAT-1 3.8 20:33:27 34° S 20:35:13 65° WSW 20:39:33 10° NNW
USA 229 DEB 4.0 20:28:05 10° NW 20:35:18 74° NE 20:39:35 29° ESE
USA 229 4.0 20:28:10 10° NW 20:35:24 73° NE 20:39:41 29° ESE
Aureole 1 Rocket 4.0 20:35:06 36° SE 20:35:44 38° ESE 20:39:59 10° NE
BREEZE M DEB (TANK) 1.8 20:30:46 10° WSW 20:36:26 70° S 20:36:34 68° SSE
Cosmos 1244 Rocket 4.5 20:30:23 10° N 20:36:47 82° E 20:39:58 32° SSE
FALCON 9 DEB 4.2 20:39:55 10° WSW 20:41:38 30° WSW 20:41:38 30° WSW
Cosmos 2227 Rocket 2.9 20:38:03 10° SW 20:43:38 55° NW 20:49:13 10° NNE
Cosmos 2082 3.6 20:38:00 10° SSW 20:43:38 90° ESE 20:49:18 10° NNE
H-2A R/B 3.5 20:40:11 10° NNE 20:44:21 55° E 20:44:42 53° ESE
FALCON 9 DEB 4.0 20:44:34 10° WSW 20:46:28 35° WSW 20:46:28 35° WSW
Lacrosse 5 rocket 1.9 20:44:09 10° WNW 20:48:22 56° NNE 20:49:58 35° E
Cosmos 468 Rocket 4.3 20:44:50 10° NNW 20:49:53 59° WSW 20:51:46 36° S
Resurs 01 Rocket 4.0 20:47:12 10° SW 20:50:11 18° W 20:53:12 10° NW
Cosmos 1869 4.3 20:47:58 21° SW 20:50:16 45° WNW 20:54:04 10° N
CZ-4C R/B 4.5 20:45:16 10° NW 20:50:24 27° N 20:56:24 10° ENE
Cosmos 2297 Rocket 3.4 20:45:06 10° WSW 20:50:27 42° NW 20:55:50 10° NNE
Cosmos 1553 Rocket 4.0 20:48:27 38° SSE 20:50:40 60° E 20:56:41 10° NNE
Meteor 1-4 Rocket 3.6 20:50:30 27° SW 20:51:56 42° WNW 20:55:21 10° N
NOSS 3-1 (A) 4.0 20:45:59 10° NW 20:53:16 82° NE 20:57:37 32° SE
Cosmos 1603 3.8 20:48:20 10° NNW 20:54:05 70° ENE 20:55:59 42° SE
Cosmos 841 Rocket 3.4 20:49:35 10° NNW 20:54:51 79° ENE 20:56:15 49° SE
Cosmos 1763 Rocket 4.0 20:57:49 10° NNW 21:02:41 48° WSW 21:04:17 35° SSW
Terra 2.0 21:03:52 46° SSW 21:05:08 67° WSW 21:09:54 10° NNW
FALCON 9 DEB 3.6 21:04:24 10° WNW 21:07:41 59° N 21:07:41 59° N
NOSS 2-1 (E) 4.0 21:10:54 38° NE 21:10:54 38° NE 21:13:18 10° NE
Cosmos 540 Rocket 3.5 21:05:27 10° NNW 21:10:33 73° WSW 21:11:41 53° S
Cosmos 1814 Rocket 4.0 21:05:16 10° NNW 21:10:37 76° ENE 21:11:45 55° SE
Cosmos 921 Rocket 2.8 21:07:33 10° NNW 21:12:01 86° ENE 21:12:21 76° SE
SPOT 5 3.8 21:14:08 31° SW 21:15:35 39° W 21:20:10 10° NNW
NOSS 3-1 (C) 4.3 21:09:43 10° NW 21:17:00 60° SW 21:20:23 37° S
Meteor 2-2 Rocket 4.4 21:15:41 31° SSW 21:18:32 70° WNW 21:24:14 10° N
Cosmos 1842 Rocket 4.1 21:20:26 40° SW 21:21:41 55° WNW 21:26:06 10° N
SL-16 R/B 3.9 21:18:33 10° NW 21:23:00 24° WSW 21:25:19 19° SW
USA 215 3.8 21:21:35 37° S 21:23:15 43° SW 21:29:27 10° WNW
Cosmos 1174 3.9 21:18:53 10° NW 21:23:25 73° NE 21:23:25 73° NE
Cosmos 1437 Rocket 3.7 21:29:53 37° NE 21:29:53 37° NE 21:32:30 10° NNE
Cosmos 2315 Rocket 4.3 21:31:12 44° ESE 21:32:17 48° E 21:38:22 10° NNE
SL-4 R/B 2.2 21:27:53 10° W 21:32:28 86° NNW 21:33:32 54° ENE
COSMOS 2455 3.6 21:29:41 10° WSW 21:35:32 51° NW 21:41:26 10° NNE
Meteor 1-25 Rocket 4.2 21:29:50 10° N 21:35:36 74° ENE 21:36:42 58° SE
ERS-1 Rocket 4.5 21:33:52 23° SW 21:35:38 28° W 21:39:58 10° NW
ATLAS 5 CENTAUR R/B 3.9 21:35:15 10° NW 21:39:32 27° NNE 21:44:30 10° E
Sich 1 3.0 21:37:24 10° NNW 21:41:28 79° NW 21:41:28 79° NW
Cosmos 2227 4.1 21:40:44 57° SSW 21:41:57 81° ESE 21:47:44 10° NNE
Cosmos 1805 Rocket 3.7 21:37:40 10° NNW 21:41:58 66° W 21:41:58 66° W
Cosmos 2221 3.9 21:41:54 28° WSW 21:43:10 34° WNW 21:47:06 10° N
Meteor 1-20 Rocket 4.1 21:41:13 10° NNW 21:47:03 88° W 21:48:01 64° S
Cosmos 1943 3.4 21:43:54 10° NW 21:49:23 54° WSW 21:50:06 50° SW
Cosmos 1745 Rocket 4.3 21:45:26 10° NNW 21:51:37 58° W 21:53:25 43° SW
SeaSat 1 2.7 21:46:59 10° NE 21:51:18 53° E 21:51:18 53° E
Cosmos 1570 Rocket 4.4 21:47:38 10° NNW 21:52:46 51° WSW 21:53:15 49° SW
Cosmos 1470 Rocket 4.4 21:51:10 10° N 21:55:06 42° ENE 21:55:06 42° ENE
Cosmos 1709 Rocket 3.9 21:50:41 10° N 21:56:56 85° W 21:58:09 60° S
Iridium 4 Rocket 3.7 21:58:16 55° E 21:58:22 55° E 22:03:41 10° N
USA 281 4.4 21:56:17 20° E 22:00:03 35° NE 22:05:55 10° NNW
Meteor 1-26 Rocket 4.3 21:59:48 59° ESE 22:00:20 61° E 22:06:02 10° NNE
Spot 4 3.7 22:00:15 83° SW 22:00:21 85° WSW 22:05:16 10° NNW
Cosmos 1633 Rocket 3.2 21:58:17 10° N 22:02:12 69° NNE 22:02:12 69° NNE
Cosmos 1606 4.1 22:06:56 32° WNW 22:06:56 32° WNW 22:10:11 10° N
S3M 4.4 22:05:24 39° SW 22:07:43 59° WNW 22:14:03 10° N
Cosmos 883 Rocket 4.4 22:06:44 58° SSW 22:08:05 85° W 22:14:26 10° N
Cosmos 1933 Rocket 4.5 22:07:25 10° N 22:11:11 40° ENE 22:11:11 40° ENE
Cosmos 1500 4.3 22:08:58 10° N 22:11:44 41° NNE 22:11:44 41° NNE
Cosmos 1666 Rocket 3.9 22:08:56 10° NNW 22:12:59 63° WNW 22:12:59 63° WNW
Cosmos 2263 Rocket 2.7 22:16:15 35° WSW 22:18:24 55° NW 22:23:54 10° NNE
Cosmos 1328 Rocket 4.0 22:22:33 59° NE 22:22:33 59° NE 22:26:18 10° NNE
Cosmos 1242 Rocket 4.0 22:23:55 36° N 22:23:55 36° N 22:26:12 10° NNE
Cosmos 968 Rocket 3.5 22:22:53 69° E 22:22:53 69° E 22:27:54 10° NNE
NOSS 2-2 (D) 4.2 22:19:27 10° NW 22:24:37 88° NE 22:25:44 63° SE
Lacrosse 5 rocket 3.1 22:23:21 10° WNW 22:25:35 27° W 22:25:35 27° W
Cosmos 1782 3.6 22:28:48 51° N 22:28:48 51° N 22:31:53 10° N
COBE Rocket 4.0 22:29:10 67° ENE 22:29:10 67° ENE 22:33:59 10° N
Cosmos 1844 Rocket 3.0 22:30:56 50° E 22:30:56 50° E 22:35:53 10° NE
Thor Agena Rocket 4.0 22:27:45 10° NNE 22:32:22 46° E 22:32:22 46° E
Cosmos 1151 Rocket 3.5 22:34:17 59° NNW 22:34:17 59° NNW 22:38:00 10° N
ALOS 2 3.0 22:35:37 58° NW 22:35:37 58° NW 22:39:21 10° NNW
CZ-4C R/B 3.9 22:34:24 10° NW 22:40:40 41° NNE 22:48:03 10° E
Cosmos 2082 Rocket 4.1 22:46:42 10° NNW 22:51:19 25° NE 22:55:53 10° E
Meteor 1-10 Rocket 4.4 22:51:59 56° E 22:52:06 57° E 22:57:32 10° NNE
Cosmos 1833 Rocket 3.8 22:48:18 10° NNW 22:53:36 39° NE 22:56:05 26° E
Cosmos 2228 Rocket 4.1 22:55:22 38° ENE 22:55:22 38° ENE 22:58:44 10° NNE
SL-16 R/B 4.4 22:51:24 10° ESE 22:56:09 24° NE 23:00:57 10° N
Cosmos 1486 Rocket 4.0 22:57:26 76° W 22:57:39 78° WNW 23:03:02 10° NNE
Cosmos 1271 Rocket 4.3 23:00:44 30° NE 23:00:44 30° NE 23:03:12 10° NNE
Meteor 1-5 Rocket 4.1 22:55:39 10° NNW 23:01:20 69° W 23:01:31 68° WSW
Cosmos 2154 Rocket 3.9 22:56:44 10° N 23:03:09 82° E 23:04:10 65° SSE
Meteor 2-6 Rocket 4.0 23:11:23 81° WSW 23:11:34 83° WNW 23:17:00 10° N
SL-4 R/B 4.2 23:07:36 10° W 23:09:09 21° WNW 23:09:09 21° WNW
Cosmos 2184 Rocket 4.1 23:07:57 10° NNW 23:14:12 62° W 23:14:58 57° SW
Cosmos 2327 Rocket 4.4 23:08:52 10° N 23:15:11 87° W 23:16:08 67° S
Cosmos 1869 Rocket 3.9 23:12:14 10° N 23:15:55 61° N 23:15:55 61° N
SJ 16-02 3.3 23:17:22 20° E 23:17:22 20° E 23:19:58 10° NE
Cosmos 1515 Rocket 4.2 23:19:41 50° NW 23:19:41 50° NW 23:23:36 10° N
Cosmos 2278 Rocket 3.6 23:19:30 25° ESE 23:19:34 25° ESE 23:24:06 10° NE
Cosmos 1666 4.3 23:17:46 10° NNW 23:20:00 30° NW 23:20:00 30° NW
USA 305 3.8 23:25:52 46° NE 23:25:52 46° NE 23:29:02 10° ENE
ATLAS 5 CENTAUR R/B 2.4 23:19:36 10° NW 23:24:58 72° NE 23:27:06 42° ESE
EO 1 Delta rocket 4.5 23:27:58 45° E 23:28:22 46° ENE 23:32:52 10° N
SeaSat 1 3.9 23:24:50 10° NNE 23:29:10 32° NW 23:31:05 24° W
Cosmos 2341 Rocket 4.1 23:23:11 10° N 23:29:33 70° ENE 23:31:02 53° SE
Cosmos 1295 Rocket 4.4 23:23:32 10° NNW 23:29:49 78° W 23:30:44 65° SSW
SL-8 Rocket 4.3 23:25:39 10° N 23:31:53 59° ENE 23:33:40 44° SE
Cosmos 1707 Rocket 4.1 23:42:09 50° ENE 23:42:09 50° ENE 23:45:55 10° NNE
Cosmos 1844 3.9 23:41:40 55° WSW 23:42:40 65° WNW 23:48:23 10° NNE
USA 306 3.4 23:43:12 59° NNE 23:43:12 59° NNE 23:47:06 10° ENE
COSMOS 2406 3.2 23:38:06 10° NNW 23:43:50 79° ENE 23:44:55 59° SE
USA 281 3.1 23:43:08 58° SSW 23:44:12 67° WSW 23:50:48 10° NNW
Cosmos 158 Rocket 4.3 23:39:25 10° NNW 23:44:18 56° ENE 23:45:07 49° E
Cosmos 1503 Rocket 4.3 23:44:44 53° W 23:45:14 55° WNW 23:50:21 10° NNE
Helios 1B rocket 4.4 23:44:35 10° NE 23:47:40 20° E 23:47:40 20° E
Cosmos 962 Rocket 4.3 23:45:26 10° NNW 23:51:38 77° W 23:52:36 63° SSW
Gbstr 26 Del rocket 3.8 23:53:47 62° SSE 23:53:57 63° SSE 23:59:23 10° ENE
